Year,Month,Day,Hour,Minute,Value (Times are PST for temperature in C)
2020,05,09,00,00,16.30
2020,05,09,00,01,16.30
2020,05,09,00,02,16.30
2020,05,09,00,03,16.20
2020,05,09,00,04,16.20
2020,05,09,00,05,16.20
2020,05,09,00,06,16.10
2020,05,09,00,07,16.10
2020,05,09,00,08,16.10
2020,05,09,00,09,16.00
2020,05,09,00,10,16.00
2020,05,09,00,11,16.00
2020,05,09,00,12,15.90
2020,05,09,00,13,15.90
2020,05,09,00,14,15.80
2020,05,09,00,15,15.80
2020,05,09,00,16,15.80
2020,05,09,00,17,15.70
2020,05,09,00,18,15.70
2020,05,09,00,19,15.70
2020,05,09,00,20,15.60
2020,05,09,00,21,15.60
2020,05,09,00,22,15.50
2020,05,09,00,23,15.50
2020,05,09,00,24,15.40
2020,05,09,00,25,15.40
2020,05,09,00,26,15.40
2020,05,09,00,27,15.40
2020,05,09,00,28,15.40
2020,05,09,00,29,15.40
2020,05,09,00,30,15.30
2020,05,09,00,31,15.40
2020,05,09,00,32,15.40
2020,05,09,00,33,15.40
2020,05,09,00,34,15.40
2020,05,09,00,35,15.50
2020,05,09,00,36,15.50
2020,05,09,00,37,15.50
2020,05,09,00,38,15.60
2020,05,09,00,39,15.60
2020,05,09,00,40,15.70
2020,05,09,00,41,15.70
2020,05,09,00,42,15.70
2020,05,09,00,43,15.70
2020,05,09,00,44,15.70
2020,05,09,00,45,15.70
2020,05,09,00,46,15.70
2020,05,09,00,47,15.70
2020,05,09,00,48,15.70
2020,05,09,00,49,15.70
2020,05,09,00,50,15.70
2020,05,09,00,51,15.70
2020,05,09,00,52,15.70
2020,05,09,00,53,15.70
2020,05,09,00,54,15.70
2020,05,09,00,55,15.60
2020,05,09,00,56,15.50
2020,05,09,00,57,15.50
2020,05,09,00,58,15.40
2020,05,09,00,59,15.40
2020,05,09,01,00,15.40
2020,05,09,01,01,15.40
2020,05,09,01,02,15.40
2020,05,09,01,03,15.30
2020,05,09,01,04,15.30
2020,05,09,01,05,15.30
2020,05,09,01,06,15.30
2020,05,09,01,07,15.30
2020,05,09,01,08,15.30
2020,05,09,01,09,15.30
2020,05,09,01,10,15.30
2020,05,09,01,11,15.30
2020,05,09,01,12,15.30
2020,05,09,01,13,15.40
2020,05,09,01,14,15.40
2020,05,09,01,15,15.40
2020,05,09,01,16,15.40
2020,05,09,01,17,15.40
2020,05,09,01,18,15.40
2020,05,09,01,19,15.40
2020,05,09,01,20,15.30
2020,05,09,01,21,15.30
2020,05,09,01,22,15.40
2020,05,09,01,23,15.40
2020,05,09,01,24,15.40
2020,05,09,01,25,15.40
2020,05,09,01,26,15.40
2020,05,09,01,27,15.40
2020,05,09,01,28,15.40
2020,05,09,01,29,15.40
2020,05,09,01,30,15.40
2020,05,09,01,31,15.40
2020,05,09,01,32,15.40
2020,05,09,01,33,15.30
2020,05,09,01,34,15.30
2020,05,09,01,35,15.30
2020,05,09,01,36,15.20
2020,05,09,01,37,15.20
2020,05,09,01,38,15.20
2020,05,09,01,39,15.10
2020,05,09,01,40,15.10
2020,05,09,01,41,15.00
2020,05,09,01,42,15.00
2020,05,09,01,43,15.00
2020,05,09,01,44,14.90
2020,05,09,01,45,14.90
2020,05,09,01,46,14.90
2020,05,09,01,47,15.00
2020,05,09,01,48,15.00
2020,05,09,01,49,15.10
2020,05,09,01,50,15.10
2020,05,09,01,51,15.10
2020,05,09,01,52,15.10
2020,05,09,01,53,15.10
2020,05,09,01,54,15.10
2020,05,09,01,55,15.10
2020,05,09,01,56,15.20
2020,05,09,01,57,15.20
2020,05,09,01,58,15.30
2020,05,09,01,59,15.30
2020,05,09,02,00,15.40
2020,05,09,02,01,15.40
2020,05,09,02,02,15.40
2020,05,09,02,03,15.40
2020,05,09,02,04,15.40
2020,05,09,02,05,15.40
2020,05,09,02,06,15.40
2020,05,09,02,07,15.40
2020,05,09,02,08,15.40
2020,05,09,02,09,15.30
2020,05,09,02,10,15.30
2020,05,09,02,11,15.30
2020,05,09,02,12,15.30
2020,05,09,02,13,15.30
2020,05,09,02,14,15.40
2020,05,09,02,15,15.40
2020,05,09,02,16,15.40
2020,05,09,02,17,15.40
2020,05,09,02,18,15.50
2020,05,09,02,19,15.50
2020,05,09,02,20,15.50
2020,05,09,02,21,15.50
2020,05,09,02,22,15.50
2020,05,09,02,23,15.50
2020,05,09,02,24,15.50
2020,05,09,02,25,15.50
2020,05,09,02,26,15.50
2020,05,09,02,27,15.40
2020,05,09,02,28,15.40
2020,05,09,02,29,15.50
2020,05,09,02,30,15.50
2020,05,09,02,31,15.50
2020,05,09,02,32,15.60
2020,05,09,02,33,15.60
2020,05,09,02,34,15.70
2020,05,09,02,35,15.70
2020,05,09,02,36,15.70
2020,05,09,02,37,15.70
2020,05,09,02,38,15.80
2020,05,09,02,39,15.80
2020,05,09,02,40,15.80
2020,05,09,02,41,15.80
2020,05,09,02,42,15.80
2020,05,09,02,43,15.80
2020,05,09,02,44,15.80
2020,05,09,02,45,15.90
2020,05,09,02,46,15.90
2020,05,09,02,47,15.90
2020,05,09,02,48,16.00
2020,05,09,02,49,16.00
2020,05,09,02,50,16.00
2020,05,09,02,51,16.00
2020,05,09,02,52,16.00
2020,05,09,02,53,16.00
2020,05,09,02,54,16.00
2020,05,09,02,55,16.00
2020,05,09,02,56,16.00
2020,05,09,02,57,16.00
2020,05,09,02,58,16.00
2020,05,09,02,59,16.00
2020,05,09,03,00,15.90
2020,05,09,03,01,15.90
2020,05,09,03,02,15.90
2020,05,09,03,03,15.90
2020,05,09,03,04,15.90
2020,05,09,03,05,15.80
2020,05,09,03,06,15.90
2020,05,09,03,07,15.80
2020,05,09,03,08,15.90
2020,05,09,03,09,15.90
2020,05,09,03,10,15.90
2020,05,09,03,11,15.90
2020,05,09,03,12,15.90
2020,05,09,03,13,15.90
2020,05,09,03,14,15.90
2020,05,09,03,15,15.90
2020,05,09,03,16,15.80
2020,05,09,03,17,15.90
2020,05,09,03,18,15.80
2020,05,09,03,19,15.80
2020,05,09,03,20,15.90
2020,05,09,03,21,15.90
2020,05,09,03,22,15.90
2020,05,09,03,23,15.90
2020,05,09,03,24,15.90
2020,05,09,03,25,15.90
2020,05,09,03,26,15.90
2020,05,09,03,27,15.90
2020,05,09,03,28,15.90
2020,05,09,03,29,15.90
2020,05,09,03,30,15.90
2020,05,09,03,31,15.90
2020,05,09,03,32,15.90
2020,05,09,03,33,15.80
2020,05,09,03,34,15.80
2020,05,09,03,35,15.80
2020,05,09,03,36,15.80
2020,05,09,03,37,15.80
2020,05,09,03,38,15.70
2020,05,09,03,39,15.70
2020,05,09,03,40,15.70
2020,05,09,03,41,15.70
2020,05,09,03,42,15.70
2020,05,09,03,43,15.60
2020,05,09,03,44,15.60
2020,05,09,03,45,15.60
2020,05,09,03,46,15.60
2020,05,09,03,47,15.50
2020,05,09,03,48,15.50
2020,05,09,03,49,15.50
2020,05,09,03,50,15.40
2020,05,09,03,51,15.50
2020,05,09,03,52,15.40
2020,05,09,03,53,15.40
2020,05,09,03,54,15.40
2020,05,09,03,55,15.40
2020,05,09,03,56,15.40
2020,05,09,03,57,15.40
2020,05,09,03,58,15.40
2020,05,09,03,59,15.40
2020,05,09,04,00,15.40
2020,05,09,04,01,15.40
2020,05,09,04,02,15.40
2020,05,09,04,03,15.40
2020,05,09,04,04,15.40
2020,05,09,04,05,15.30
2020,05,09,04,06,15.30
2020,05,09,04,07,15.30
2020,05,09,04,08,15.30
2020,05,09,04,09,15.30
2020,05,09,04,10,15.20
2020,05,09,04,11,15.20
2020,05,09,04,12,15.20
2020,05,09,04,13,15.20
2020,05,09,04,14,15.20
2020,05,09,04,15,15.10
2020,05,09,04,16,15.10
2020,05,09,04,17,15.10
2020,05,09,04,18,15.10
2020,05,09,04,19,15.10
2020,05,09,04,20,15.10
2020,05,09,04,21,15.10
2020,05,09,04,22,15.00
2020,05,09,04,23,15.00
2020,05,09,04,24,15.00
2020,05,09,04,25,15.00
2020,05,09,04,26,15.00
2020,05,09,04,27,15.00
2020,05,09,04,28,15.00
2020,05,09,04,29,15.00
2020,05,09,04,30,15.00
2020,05,09,04,31,15.00
2020,05,09,04,32,15.00
2020,05,09,04,33,15.00
2020,05,09,04,34,15.00
2020,05,09,04,35,15.00
2020,05,09,04,36,15.00
2020,05,09,04,37,15.00
2020,05,09,04,38,15.00
2020,05,09,04,39,15.00
2020,05,09,04,40,15.00
2020,05,09,04,41,15.00
2020,05,09,04,42,15.10
2020,05,09,04,43,15.10
2020,05,09,04,44,15.10
2020,05,09,04,45,15.10
2020,05,09,04,46,15.10
2020,05,09,04,47,15.10
2020,05,09,04,48,15.10
2020,05,09,04,49,15.10
2020,05,09,04,50,15.10
2020,05,09,04,51,15.00
2020,05,09,04,52,15.00
2020,05,09,04,53,15.00
2020,05,09,04,54,15.00
2020,05,09,04,55,15.00
2020,05,09,04,56,15.00
2020,05,09,04,57,15.00
2020,05,09,04,58,14.90
2020,05,09,04,59,14.90
2020,05,09,05,00,14.90
2020,05,09,05,01,14.90
2020,05,09,05,02,14.90
2020,05,09,05,03,14.90
2020,05,09,05,04,14.90
2020,05,09,05,05,14.90
2020,05,09,05,06,14.90
2020,05,09,05,07,14.90
2020,05,09,05,08,14.90
2020,05,09,05,09,14.90
2020,05,09,05,10,14.90
2020,05,09,05,11,14.90
2020,05,09,05,12,14.90
2020,05,09,05,13,14.90
2020,05,09,05,14,14.90
2020,05,09,05,15,15.00
2020,05,09,05,16,15.00
2020,05,09,05,17,15.00
2020,05,09,05,18,15.00
2020,05,09,05,19,15.00
2020,05,09,05,20,15.00
2020,05,09,05,21,15.00
2020,05,09,05,22,15.00
2020,05,09,05,23,15.00
2020,05,09,05,24,15.00
2020,05,09,05,25,15.00
2020,05,09,05,26,15.00
2020,05,09,05,27,15.00
2020,05,09,05,28,15.00
2020,05,09,05,29,15.00
2020,05,09,05,30,15.00
2020,05,09,05,31,15.00
2020,05,09,05,32,15.00
2020,05,09,05,33,14.90
2020,05,09,05,34,14.90
2020,05,09,05,35,14.90
2020,05,09,05,36,14.90
2020,05,09,05,37,14.90
2020,05,09,05,38,14.90
2020,05,09,05,39,14.90
2020,05,09,05,40,14.90
2020,05,09,05,41,14.90
2020,05,09,05,42,14.90
2020,05,09,05,43,14.90
2020,05,09,05,44,14.90
2020,05,09,05,45,14.90
2020,05,09,05,46,14.90
2020,05,09,05,47,14.90
2020,05,09,05,48,14.90
2020,05,09,05,49,14.90
2020,05,09,05,50,14.90
2020,05,09,05,51,14.90
2020,05,09,05,52,14.90
2020,05,09,05,53,14.90
2020,05,09,05,54,14.90
2020,05,09,05,55,14.90
2020,05,09,05,56,14.90
2020,05,09,05,57,14.90
2020,05,09,05,58,14.90
2020,05,09,05,59,14.90
2020,05,09,06,00,15.00
2020,05,09,06,01,15.00
2020,05,09,06,02,15.00
2020,05,09,06,03,15.00
2020,05,09,06,04,15.00
2020,05,09,06,05,15.00
2020,05,09,06,06,15.10
2020,05,09,06,07,15.10
2020,05,09,06,08,15.10
2020,05,09,06,09,15.10
2020,05,09,06,10,15.10
2020,05,09,06,11,15.10
2020,05,09,06,12,15.10
2020,05,09,06,13,15.10
2020,05,09,06,14,15.10
2020,05,09,06,15,15.10
2020,05,09,06,16,15.10
2020,05,09,06,17,15.10
2020,05,09,06,18,15.10
2020,05,09,06,19,15.10
2020,05,09,06,20,15.10
2020,05,09,06,21,15.10
2020,05,09,06,22,15.10
2020,05,09,06,23,15.10
2020,05,09,06,24,15.10
2020,05,09,06,25,15.10
2020,05,09,06,26,15.10
2020,05,09,06,27,15.10
2020,05,09,06,28,15.10
2020,05,09,06,29,15.10
2020,05,09,06,30,15.10
2020,05,09,06,31,15.10
2020,05,09,06,32,15.10
2020,05,09,06,33,15.20
2020,05,09,06,34,15.20
2020,05,09,06,35,15.30
2020,05,09,06,36,15.30
2020,05,09,06,37,15.40
2020,05,09,06,38,15.40
2020,05,09,06,39,15.50
2020,05,09,06,40,15.60
2020,05,09,06,41,15.70
2020,05,09,06,42,15.70
2020,05,09,06,43,15.80
2020,05,09,06,44,15.90
2020,05,09,06,45,15.90
2020,05,09,06,46,16.00
2020,05,09,06,47,16.10
2020,05,09,06,48,16.10
2020,05,09,06,49,16.10
2020,05,09,06,50,16.20
2020,05,09,06,51,16.20
2020,05,09,06,52,16.30
2020,05,09,06,53,16.30
2020,05,09,06,54,16.30
2020,05,09,06,55,16.40
2020,05,09,06,56,16.40
2020,05,09,06,57,16.40
2020,05,09,06,58,16.50
2020,05,09,06,59,16.60
2020,05,09,07,00,16.60
2020,05,09,07,01,16.60
2020,05,09,07,02,16.70
2020,05,09,07,03,16.70
2020,05,09,07,04,16.80
2020,05,09,07,05,16.80
2020,05,09,07,06,16.80
2020,05,09,07,07,16.90
2020,05,09,07,08,16.90
2020,05,09,07,09,17.00
2020,05,09,07,10,17.00
2020,05,09,07,11,17.10
2020,05,09,07,12,17.10
2020,05,09,07,13,17.10
2020,05,09,07,14,17.10
2020,05,09,07,15,17.20
2020,05,09,07,16,17.20
2020,05,09,07,17,17.20
2020,05,09,07,18,17.30
2020,05,09,07,19,17.30
2020,05,09,07,20,17.30
2020,05,09,07,21,17.40
2020,05,09,07,22,17.40
2020,05,09,07,23,17.40
2020,05,09,07,24,17.40
2020,05,09,07,25,17.50
2020,05,09,07,26,17.50
2020,05,09,07,27,17.60
2020,05,09,07,28,17.60
2020,05,09,07,29,17.60
2020,05,09,07,30,17.60
2020,05,09,07,31,17.60
2020,05,09,07,32,17.70
2020,05,09,07,33,17.70
2020,05,09,07,34,17.70
2020,05,09,07,35,17.70
2020,05,09,07,36,17.80
2020,05,09,07,37,17.80
2020,05,09,07,38,17.80
2020,05,09,07,39,17.90
2020,05,09,07,40,17.90
2020,05,09,07,41,17.90
2020,05,09,07,42,18.00
2020,05,09,07,43,18.00
2020,05,09,07,44,18.00
2020,05,09,07,45,18.00
2020,05,09,07,46,18.10
2020,05,09,07,47,18.10
2020,05,09,07,48,18.20
2020,05,09,07,49,18.20
2020,05,09,07,50,18.30
2020,05,09,07,51,18.40
2020,05,09,07,52,18.40
2020,05,09,07,53,18.50
2020,05,09,07,54,18.50
2020,05,09,07,55,18.60
2020,05,09,07,56,18.70
2020,05,09,07,57,18.70
2020,05,09,07,58,18.80
2020,05,09,07,59,18.80
2020,05,09,08,00,18.80
2020,05,09,08,01,18.80
2020,05,09,08,02,18.80
2020,05,09,08,03,18.90
2020,05,09,08,04,18.90
2020,05,09,08,05,18.90
2020,05,09,08,06,18.90
2020,05,09,08,07,18.90
2020,05,09,08,08,18.80
2020,05,09,08,09,18.80
2020,05,09,08,10,18.80
2020,05,09,08,11,18.80
2020,05,09,08,12,18.80
2020,05,09,08,13,18.80
2020,05,09,08,14,18.80
2020,05,09,08,15,18.80
2020,05,09,08,16,18.80
2020,05,09,08,17,18.80
2020,05,09,08,18,18.90
2020,05,09,08,19,18.90
2020,05,09,08,20,18.90
2020,05,09,08,21,18.90
2020,05,09,08,22,19.00
2020,05,09,08,23,19.00
2020,05,09,08,24,19.00
2020,05,09,08,25,19.10
2020,05,09,08,26,19.10
2020,05,09,08,27,19.10
2020,05,09,08,28,19.10
2020,05,09,08,29,19.10
2020,05,09,08,30,19.10
2020,05,09,08,31,19.20
2020,05,09,08,32,19.20
2020,05,09,08,33,19.20
2020,05,09,08,34,19.30
2020,05,09,08,35,19.30
2020,05,09,08,36,19.40
2020,05,09,08,37,19.40
2020,05,09,08,38,19.40
2020,05,09,08,39,19.40
2020,05,09,08,40,19.40
2020,05,09,08,41,19.50
2020,05,09,08,42,19.50
2020,05,09,08,43,19.50
2020,05,09,08,44,19.50
2020,05,09,08,45,19.60
2020,05,09,08,46,19.60
2020,05,09,08,47,19.70
2020,05,09,08,48,19.70
2020,05,09,08,49,19.70
2020,05,09,08,50,19.70
2020,05,09,08,51,19.70
2020,05,09,08,52,19.70
2020,05,09,08,53,19.70
2020,05,09,08,54,19.70
2020,05,09,08,55,19.70
2020,05,09,08,56,19.70
2020,05,09,08,57,19.70
2020,05,09,08,58,19.70
2020,05,09,08,59,19.80
2020,05,09,09,00,19.80
2020,05,09,09,01,19.80
2020,05,09,09,02,19.80
2020,05,09,09,03,19.80
2020,05,09,09,04,19.80
2020,05,09,09,05,19.80
2020,05,09,09,06,19.80
2020,05,09,09,07,19.80
2020,05,09,09,08,19.80
2020,05,09,09,09,19.80
2020,05,09,09,10,19.80
2020,05,09,09,11,19.80
2020,05,09,09,12,19.90
2020,05,09,09,13,19.90
2020,05,09,09,14,19.90
2020,05,09,09,15,20.00
2020,05,09,09,16,20.00
2020,05,09,09,17,20.10
2020,05,09,09,18,20.10
2020,05,09,09,19,20.10
2020,05,09,09,20,20.20
2020,05,09,09,21,20.10
2020,05,09,09,22,20.10
2020,05,09,09,23,20.20
2020,05,09,09,24,20.20
2020,05,09,09,25,20.20
2020,05,09,09,26,20.30
2020,05,09,09,27,20.30
2020,05,09,09,28,20.40
2020,05,09,09,29,20.40
2020,05,09,09,30,20.50
2020,05,09,09,31,20.60
2020,05,09,09,32,20.60
2020,05,09,09,33,20.70
2020,05,09,09,34,20.70
2020,05,09,09,35,20.70
2020,05,09,09,36,20.70
2020,05,09,09,37,20.70
2020,05,09,09,38,20.70
2020,05,09,09,39,20.70
2020,05,09,09,40,20.70
2020,05,09,09,41,20.80
2020,05,09,09,42,20.80
2020,05,09,09,43,20.80
2020,05,09,09,44,20.90
2020,05,09,09,45,20.90
2020,05,09,09,46,20.90
2020,05,09,09,47,21.00
2020,05,09,09,48,21.00
2020,05,09,09,49,21.10
2020,05,09,09,50,21.20
2020,05,09,09,51,21.30
2020,05,09,09,52,21.30
2020,05,09,09,53,21.30
2020,05,09,09,54,21.30
2020,05,09,09,55,21.40
2020,05,09,09,56,21.40
2020,05,09,09,57,21.30
2020,05,09,09,58,21.30
2020,05,09,09,59,21.30
2020,05,09,10,00,21.40
2020,05,09,10,01,21.40
2020,05,09,10,02,21.50
2020,05,09,10,03,21.50
2020,05,09,10,04,21.60
2020,05,09,10,05,21.60
2020,05,09,10,06,21.60
2020,05,09,10,07,21.60
2020,05,09,10,08,21.60
2020,05,09,10,09,21.60
2020,05,09,10,10,21.70
2020,05,09,10,11,21.70
2020,05,09,10,12,21.70
2020,05,09,10,13,21.70
2020,05,09,10,14,21.70
2020,05,09,10,15,21.60
2020,05,09,10,16,21.60
2020,05,09,10,17,21.60
2020,05,09,10,18,21.60
2020,05,09,10,19,21.70
2020,05,09,10,20,21.70
2020,05,09,10,21,21.70
2020,05,09,10,22,21.70
2020,05,09,10,23,21.80
2020,05,09,10,24,21.80
2020,05,09,10,25,21.80
2020,05,09,10,26,21.80
2020,05,09,10,27,21.80
2020,05,09,10,28,21.70
2020,05,09,10,29,21.70
2020,05,09,10,30,21.60
2020,05,09,10,31,21.60
2020,05,09,10,32,21.50
2020,05,09,10,33,21.50
2020,05,09,10,34,21.50
2020,05,09,10,35,21.50
2020,05,09,10,36,21.60
2020,05,09,10,37,21.60
2020,05,09,10,38,21.60
2020,05,09,10,39,21.60
2020,05,09,10,40,21.70
2020,05,09,10,41,21.70
2020,05,09,10,42,21.70
2020,05,09,10,43,21.70
2020,05,09,10,44,21.70
2020,05,09,10,45,21.80
2020,05,09,10,46,21.80
2020,05,09,10,47,21.90
2020,05,09,10,48,21.80
2020,05,09,10,49,21.90
2020,05,09,10,50,21.90
2020,05,09,10,51,22.00
2020,05,09,10,52,22.00
2020,05,09,10,53,22.10
2020,05,09,10,54,22.10
2020,05,09,10,55,22.10
2020,05,09,10,56,22.00
2020,05,09,10,57,22.00
2020,05,09,10,58,21.90
2020,05,09,10,59,21.80
2020,05,09,11,00,21.80
2020,05,09,11,01,21.80
2020,05,09,11,02,21.80
2020,05,09,11,03,21.80
2020,05,09,11,04,21.80
2020,05,09,11,05,21.90
2020,05,09,11,06,21.90
2020,05,09,11,07,21.90
2020,05,09,11,08,21.90
2020,05,09,11,09,21.90
2020,05,09,11,10,21.90
2020,05,09,11,11,21.90
2020,05,09,11,12,21.90
2020,05,09,11,13,22.00
2020,05,09,11,14,22.00
2020,05,09,11,15,22.10
2020,05,09,11,16,22.20
2020,05,09,11,17,22.40
2020,05,09,11,18,22.50
2020,05,09,11,19,22.60
2020,05,09,11,20,22.80
2020,05,09,11,21,22.80
2020,05,09,11,22,22.80
2020,05,09,11,23,22.80
2020,05,09,11,24,22.90
2020,05,09,11,25,22.90
2020,05,09,11,26,22.90
2020,05,09,11,27,22.90
2020,05,09,11,28,22.90
2020,05,09,11,29,22.90
2020,05,09,11,30,22.90
2020,05,09,11,31,22.90
2020,05,09,11,32,22.90
2020,05,09,11,33,22.90
2020,05,09,11,34,22.90
2020,05,09,11,35,22.90
2020,05,09,11,36,22.90
2020,05,09,11,37,22.90
2020,05,09,11,38,22.90
2020,05,09,11,39,22.90
2020,05,09,11,40,22.90
2020,05,09,11,41,22.90
2020,05,09,11,42,22.90
2020,05,09,11,43,23.00
2020,05,09,11,44,23.00
2020,05,09,11,45,23.10
2020,05,09,11,46,23.20
2020,05,09,11,47,23.30
2020,05,09,11,48,23.40
2020,05,09,11,49,23.40
2020,05,09,11,50,23.50
2020,05,09,11,51,23.60
2020,05,09,11,52,23.60
2020,05,09,11,53,23.50
2020,05,09,11,54,23.50
2020,05,09,11,55,23.40
2020,05,09,11,56,23.40
2020,05,09,11,57,23.40
2020,05,09,11,58,23.40
2020,05,09,11,59,23.40
2020,05,09,12,00,23.40
2020,05,09,12,01,23.40
2020,05,09,12,02,23.40
2020,05,09,12,03,23.40
2020,05,09,12,04,23.40
2020,05,09,12,05,23.40
2020,05,09,12,06,23.40
2020,05,09,12,07,23.40
2020,05,09,12,08,23.40
2020,05,09,12,09,23.40
2020,05,09,12,10,23.40
2020,05,09,12,11,23.30
2020,05,09,12,12,23.30
2020,05,09,12,13,23.30
2020,05,09,12,14,23.30
2020,05,09,12,15,23.40
2020,05,09,12,16,23.40
2020,05,09,12,17,23.40
2020,05,09,12,18,23.40
2020,05,09,12,19,23.40
2020,05,09,12,20,23.40
2020,05,09,12,21,23.40
2020,05,09,12,22,23.50
2020,05,09,12,23,23.50
2020,05,09,12,24,23.50
2020,05,09,12,25,23.50
2020,05,09,12,26,23.50
2020,05,09,12,27,23.50
2020,05,09,12,28,23.50
2020,05,09,12,29,23.50
2020,05,09,12,30,23.50
2020,05,09,12,31,23.50
2020,05,09,12,32,23.50
2020,05,09,12,33,23.50
2020,05,09,12,34,23.50
2020,05,09,12,35,23.50
2020,05,09,12,36,23.60
2020,05,09,12,37,23.60
2020,05,09,12,38,23.60
2020,05,09,12,39,23.60
2020,05,09,12,40,23.70
2020,05,09,12,41,23.70
2020,05,09,12,42,23.80
2020,05,09,12,43,23.80
2020,05,09,12,44,23.80
2020,05,09,12,45,23.90
2020,05,09,12,46,24.00
2020,05,09,12,47,24.00
2020,05,09,12,48,24.10
2020,05,09,12,49,24.30
2020,05,09,12,50,24.30
2020,05,09,12,51,24.40
2020,05,09,12,52,24.50
2020,05,09,12,53,24.60
2020,05,09,12,54,24.70
2020,05,09,12,55,24.80
2020,05,09,12,56,24.90
2020,05,09,12,57,24.90
2020,05,09,12,58,24.90
2020,05,09,12,59,24.90
2020,05,09,13,00,24.90
2020,05,09,13,01,24.90
2020,05,09,13,02,24.90
2020,05,09,13,03,24.90
2020,05,09,13,04,25.00
2020,05,09,13,05,25.00
2020,05,09,13,06,25.10
2020,05,09,13,07,25.20
2020,05,09,13,08,25.20
2020,05,09,13,09,25.20
2020,05,09,13,10,25.20
2020,05,09,13,11,25.20
2020,05,09,13,12,25.20
2020,05,09,13,13,25.20
2020,05,09,13,14,25.30
2020,05,09,13,15,25.30
2020,05,09,13,16,25.40
2020,05,09,13,17,25.40
2020,05,09,13,18,25.40
2020,05,09,13,19,25.40
2020,05,09,13,20,25.40
2020,05,09,13,21,25.40
2020,05,09,13,22,25.40
2020,05,09,13,23,25.40
2020,05,09,13,24,25.40
2020,05,09,13,25,25.40
2020,05,09,13,26,25.40
2020,05,09,13,27,25.40
2020,05,09,13,28,25.40
2020,05,09,13,29,25.40
2020,05,09,13,30,25.40
2020,05,09,13,31,25.40
2020,05,09,13,32,25.40
2020,05,09,13,33,25.40
2020,05,09,13,34,25.50
2020,05,09,13,35,25.50
2020,05,09,13,36,25.60
2020,05,09,13,37,25.60
2020,05,09,13,38,25.70
2020,05,09,13,39,25.70
2020,05,09,13,40,25.80
2020,05,09,13,41,25.80
2020,05,09,13,42,25.80
2020,05,09,13,43,25.90
2020,05,09,13,44,25.90
2020,05,09,13,45,25.90
2020,05,09,13,46,26.00
2020,05,09,13,47,26.10
2020,05,09,13,48,26.10
2020,05,09,13,49,26.20
2020,05,09,13,50,26.20
2020,05,09,13,51,26.20
2020,05,09,13,52,26.20
2020,05,09,13,53,26.20
2020,05,09,13,54,26.10
2020,05,09,13,55,26.10
2020,05,09,13,56,26.20
2020,05,09,13,57,26.20
2020,05,09,13,58,26.30
2020,05,09,13,59,26.30
2020,05,09,14,00,26.30
2020,05,09,14,01,26.30
2020,05,09,14,02,26.30
2020,05,09,14,03,26.30
2020,05,09,14,04,26.30
2020,05,09,14,05,26.30
2020,05,09,14,06,26.40
2020,05,09,14,07,26.40
2020,05,09,14,08,26.40
2020,05,09,14,09,26.40
2020,05,09,14,10,26.50
2020,05,09,14,11,26.60
2020,05,09,14,12,26.60
2020,05,09,14,13,26.70
2020,05,09,14,14,26.80
2020,05,09,14,15,26.80
2020,05,09,14,16,26.90
2020,05,09,14,17,26.90
2020,05,09,14,18,27.00
2020,05,09,14,19,27.00
2020,05,09,14,20,27.00
2020,05,09,14,21,26.90
2020,05,09,14,22,26.90
2020,05,09,14,23,26.90
2020,05,09,14,24,27.00
2020,05,09,14,25,27.00
2020,05,09,14,26,27.10
2020,05,09,14,27,27.20
2020,05,09,14,28,27.20
2020,05,09,14,29,27.30
2020,05,09,14,30,27.30
2020,05,09,14,31,27.40
2020,05,09,14,32,27.40
2020,05,09,14,33,27.40
2020,05,09,14,34,27.40
2020,05,09,14,35,27.40
2020,05,09,14,36,27.30
2020,05,09,14,37,27.30
2020,05,09,14,38,27.30
2020,05,09,14,39,27.30
2020,05,09,14,40,27.30
2020,05,09,14,41,27.30
2020,05,09,14,42,27.30
2020,05,09,14,43,27.30
2020,05,09,14,44,27.30
2020,05,09,14,45,27.20
2020,05,09,14,46,27.20
2020,05,09,14,47,27.20
2020,05,09,14,48,27.20
2020,05,09,14,49,27.30
2020,05,09,14,50,27.30
2020,05,09,14,51,27.40
2020,05,09,14,52,27.40
2020,05,09,14,53,27.40
2020,05,09,14,54,27.40
2020,05,09,14,55,27.40
2020,05,09,14,56,27.50
2020,05,09,14,57,27.60
2020,05,09,14,58,27.60
2020,05,09,14,59,27.70
2020,05,09,15,00,27.80
2020,05,09,15,01,27.90
2020,05,09,15,02,28.00
2020,05,09,15,03,28.00
2020,05,09,15,04,28.00
2020,05,09,15,05,28.10
2020,05,09,15,06,28.10
2020,05,09,15,07,28.10
2020,05,09,15,08,28.10
2020,05,09,15,09,28.10
2020,05,09,15,10,28.20
2020,05,09,15,11,28.20
2020,05,09,15,12,28.20
2020,05,09,15,13,28.20
2020,05,09,15,14,28.20
2020,05,09,15,15,28.30
2020,05,09,15,16,28.30
2020,05,09,15,17,28.40
2020,05,09,15,18,28.40
2020,05,09,15,19,28.40
2020,05,09,15,20,28.30
2020,05,09,15,21,28.30
2020,05,09,15,22,28.20
2020,05,09,15,23,28.20
2020,05,09,15,24,28.10
2020,05,09,15,25,28.10
2020,05,09,15,26,28.00
2020,05,09,15,27,28.00
2020,05,09,15,28,28.00
2020,05,09,15,29,28.00
2020,05,09,15,30,28.00
2020,05,09,15,31,28.10
2020,05,09,15,32,28.10
2020,05,09,15,33,28.10
2020,05,09,15,34,28.10
2020,05,09,15,35,28.10
2020,05,09,15,36,28.00
2020,05,09,15,37,28.00
2020,05,09,15,38,27.90
2020,05,09,15,39,27.80
2020,05,09,15,40,27.80
2020,05,09,15,41,27.80
2020,05,09,15,42,27.70
2020,05,09,15,43,27.70
2020,05,09,15,44,27.70
2020,05,09,15,45,27.80
2020,05,09,15,46,27.80
2020,05,09,15,47,27.80
2020,05,09,15,48,27.80
2020,05,09,15,49,27.80
2020,05,09,15,50,27.90
2020,05,09,15,51,27.90
2020,05,09,15,52,27.90
2020,05,09,15,53,27.90
2020,05,09,15,54,27.90
2020,05,09,15,55,27.90
2020,05,09,15,56,27.90
2020,05,09,15,57,27.90
2020,05,09,15,58,27.90
2020,05,09,15,59,27.80
2020,05,09,16,00,27.80
2020,05,09,16,01,27.70
2020,05,09,16,02,27.70
2020,05,09,16,03,27.70
2020,05,09,16,04,27.70
2020,05,09,16,05,27.70
2020,05,09,16,06,27.60
2020,05,09,16,07,27.60
2020,05,09,16,08,27.60
2020,05,09,16,09,27.60
2020,05,09,16,10,27.50
2020,05,09,16,11,27.50
2020,05,09,16,12,27.50
2020,05,09,16,13,27.50
2020,05,09,16,14,27.50
2020,05,09,16,15,27.50
2020,05,09,16,16,27.60
2020,05,09,16,17,27.60
2020,05,09,16,18,27.60
2020,05,09,16,19,27.70
2020,05,09,16,20,27.70
2020,05,09,16,21,27.70
2020,05,09,16,22,27.70
2020,05,09,16,23,27.60
2020,05,09,16,24,27.60
2020,05,09,16,25,27.60
2020,05,09,16,26,27.60
2020,05,09,16,27,27.60
2020,05,09,16,28,27.70
2020,05,09,16,29,27.70
2020,05,09,16,30,27.70
2020,05,09,16,31,27.70
2020,05,09,16,32,27.70
2020,05,09,16,33,27.80
2020,05,09,16,34,27.80
2020,05,09,16,35,27.80
2020,05,09,16,36,27.90
2020,05,09,16,37,27.90
2020,05,09,16,38,27.90
2020,05,09,16,39,28.00
2020,05,09,16,40,28.00
2020,05,09,16,41,28.10
2020,05,09,16,42,28.10
2020,05,09,16,43,28.10
2020,05,09,16,44,28.10
2020,05,09,16,45,28.10
2020,05,09,16,46,28.10
2020,05,09,16,47,28.20
2020,05,09,16,48,28.20
2020,05,09,16,49,28.20
2020,05,09,16,50,28.30
2020,05,09,16,51,28.30
2020,05,09,16,52,28.40
2020,05,09,16,53,28.50
2020,05,09,16,54,28.50
2020,05,09,16,55,28.60
2020,05,09,16,56,28.60
2020,05,09,16,57,28.60
2020,05,09,16,58,28.60
2020,05,09,16,59,28.60
2020,05,09,17,00,28.60
2020,05,09,17,01,28.60
2020,05,09,17,02,28.60
2020,05,09,17,03,28.60
2020,05,09,17,04,28.70
2020,05,09,17,05,28.70
2020,05,09,17,06,28.80
2020,05,09,17,07,28.80
2020,05,09,17,08,28.80
2020,05,09,17,09,28.80
2020,05,09,17,10,28.80
2020,05,09,17,11,28.80
2020,05,09,17,12,28.70
2020,05,09,17,13,28.70
2020,05,09,17,14,28.70
2020,05,09,17,15,28.70
2020,05,09,17,16,28.70
2020,05,09,17,17,28.70
2020,05,09,17,18,28.70
2020,05,09,17,19,28.70